"Pseudo-MPEC" for P220yVk

Created 2024 Oct 31 11:31:21 UT using Find_Orb

Click here for an explanation of pseudo-MPECs

 
 Astrometry: 
     P220yVk* C2024 10 08.59500709 01 33.541+26 11 55.62   ~A8Fb 21.68wXNEOCPF52
     P220yVk  C2024 10 08.60559309 01 33.906+26 11 55.76   ~A8Fb 21.64wXNEOCPF52
     P220yVk  C2024 10 08.61088809 01 34.070+26 11 56.16   ~A8Fb 21.56wXNEOCPF52
     P220yVk  C2024 10 10.62063809 03 16.001+26 08 53.29   ~AAIq 21.05GVNEOCPF51
     P220yVk  C2024 10 10.62145909 03 16.037+26 08 53.34   ~AAIq 21.35GVNEOCPF51

Station data:
(F51) Pan-STARRS 1, Haleakala  (N20.707234 W156.255910)  US/Hawaii.
   Observers J. Bulger, T. Lowe, A. Schultz, M. Willman. Measurers K.
   Chambers, S. Chastel, T. de Boer, L. Denneau, J. Fairlamb, H. Flewelling,
   M. Huber, C.-C. Lin, E. Magnier, Y. Ramanjooloo, R. Wainscoat, R. Weryk.
   1.8-m Ritchey-Chrétien + CCD.
(F52) Pan-STARRS 2, Haleakala  (N20.707382 W156.255910)  US/Hawaii.
   Observers J. Bulger, T. Dukes, T. Lowe, A. Schultz, M. Willman. Measurers
   K. Chambers, S. Chastel, T. de Boer, L. Denneau, J. Fairlamb, H.
   Flewelling, M. Huber, C.-C. Lin, E. Magnier, Y. Ramanjooloo, R. Wainscoat,
   R. Weryk. 1.8-m Ritchey-Chrétien + CCD.

Orbital elements:  P220yVk
   Perihelion 2024 Aug 1.88203 +/- 42.1 TT = 21:10:07 (JD 2460524.38203)
Epoch 2024 Oct 10.0 TT = JDT 2460593.5   Earth MOID: 0.0251   Ve: 0.0317
M 142.11210221 +/- 5.9              Me: 0.0688                   AutoNEOCP
n   2.05608039 +/- 1.17             Peri.  349.08567 +/- 30
a   0.61250455 +/- 0.232            Node   230.85668 +/- 42
e   0.5845605 +/- 0.597             Incl.    4.56653 +/- 9
P   0.479/175.087d         H 21.41  G  0.15   U 12.9
q 0.25445853 +/- 0.462    Q 0.97055056 +/- 0.00284        (J2000 ecliptic)
From 5 observations 2024 Oct. 8-10; mean residual 0".07
Residuals in arcseconds: 
241008 F52  .03-  .05+    241008 F52  .06-  .10+    241010 F51  .00   .04+    
241008 F52  .08+  .15-    241010 F51  .00   .04-    

Ephemerides (geocentric):
Date (UTC) HH   RA             Dec           delta  r     elong  mag " sig PA
---- --------  ------------   ------------  ------ ------ -----  --- --------
2024 10 31 12  10 21 41.903   +20 45 51.11  .07001 .96968  68.9 19.6 137d 110
2024 10 31 13  10 22 08.302   +20 43 29.35  .06978 .96966  68.8 19.6 137d 110
2024 10 31 14  10 22 34.866   +20 41 06.37  .06956 .96964  68.8 19.6 137d 110
2024 10 31 15  10 23 01.595   +20 38 42.15  .06933 .96961  68.7 19.6 137d 110
2024 10 31 16  10 23 28.491   +20 36 16.70  .06910 .96959  68.6 19.6 137d 110
2024 10 31 17  10 23 55.555   +20 33 49.98  .06888 .96956  68.5 19.6 137d 110
2024 10 31 18  10 24 22.789   +20 31 22.00  .06865 .96954  68.5 19.6 137d 110
2024 10 31 19  10 24 50.193   +20 28 52.73  .06843 .96951  68.4 19.6 137d 110
2024 10 31 20  10 25 17.770   +20 26 22.16  .06820 .96949  68.3 19.6 138d 110
2024 10 31 21  10 25 45.520   +20 23 50.29  .06798 .96946  68.2 19.6 138d 110
2024 10 31 22  10 26 13.444   +20 21 17.08  .06776 .96943  68.2 19.6 138d 111
2024 10 31 23  10 26 41.545   +20 18 42.54  .06753 .96941  68.1 19.6 138d 111
2024 11 01 00  10 27 09.824   +20 16 06.64  .06731 .96938  68.0 19.6 138d 111
2024 11 01 01  10 27 38.282   +20 13 29.37  .06709 .96935  67.9 19.5 138d 111
2024 11 01 02  10 28 06.919   +20 10 50.72  .06686 .96932  67.9 19.5 138d 111
2024 11 01 03  10 28 35.739   +20 08 10.67  .06664 .96929  67.8 19.5 138d 111
2024 11 01 04  10 29 04.742   +20 05 29.21  .06642 .96927  67.7 19.5 138d 111
2024 11 01 05  10 29 33.930   +20 02 46.32  .06619 .96924  67.6 19.5 138d 111
2024 11 01 06  10 30 03.304   +20 00 01.98  .06597 .96921  67.5 19.5 138d 111
2024 11 01 07  10 30 32.866   +19 57 16.19  .06575 .96918  67.4 19.5 138d 111
2024 11 01 08  10 31 02.617   +19 54 28.92  .06553 .96915  67.4 19.5 138d 111
2024 11 01 09  10 31 32.558   +19 51 40.15  .06531 .96912  67.3 19.5 138d 111
2024 11 01 10  10 32 02.691   +19 48 49.88  .06509 .96909  67.2 19.5 138d 111
2024 11 01 11  10 32 33.018   +19 45 58.09  .06487 .96906  67.1 19.5 138d 111
2024 11 01 12  10 33 03.540   +19 43 04.76  .06465 .96903  67.0 19.5 137d 111
2024 11 01 13  10 33 34.259   +19 40 09.87  .06443 .96900  66.9 19.5 137d 111
2024 11 01 14  10 34 05.176   +19 37 13.41  .06421 .96896  66.8 19.5 137d 111
2024 11 01 15  10 34 36.293   +19 34 15.35  .06399 .96893  66.8 19.5 137d 111
2024 11 01 16  10 35 07.611   +19 31 15.69  .06377 .96890  66.7 19.5 137d 111
2024 11 01 17  10 35 39.133   +19 28 14.40  .06355 .96887  66.6 19.5 137d 111
2024 11 01 18  10 36 10.858   +19 25 11.48  .06333 .96883  66.5 19.5 137d 111
2024 11 01 19  10 36 42.790   +19 22 06.89  .06311 .96880  66.4 19.5 137d 112
2024 11 01 20  10 37 14.930   +19 19 00.62  .06290 .96877  66.3 19.5 137d 112
2024 11 01 21  10 37 47.279   +19 15 52.66  .06268 .96873  66.2 19.5 137d 112
2024 11 01 22  10 38 19.838   +19 12 42.98  .06246 .96870  66.1 19.5 137d 112
2024 11 01 23  10 38 52.611   +19 09 31.57  .06225 .96866  66.0 19.5 137d 112
2024 11 02 00  10 39 25.598   +19 06 18.40  .06203 .96863  65.9 19.5 137d 112
2024 11 02 01  10 39 58.801   +19 03 03.47  .06181 .96859  65.8 19.5 137d 112
2024 11 02 02  10 40 32.221   +18 59 46.75  .06160 .96856  65.7 19.5 137d 112
2024 11 02 03  10 41 05.861   +18 56 28.21  .06138 .96852  65.6 19.5 137d 112
2024 11 02 04  10 41 39.722   +18 53 07.85  .06117 .96849  65.5 19.5 137d 112
2024 11 02 05  10 42 13.806   +18 49 45.64  .06095 .96845  65.4 19.5 137d 112
2024 11 02 06  10 42 48.114   +18 46 21.56  .06074 .96841  65.3 19.5 137d 112
2024 11 02 07  10 43 22.649   +18 42 55.59  .06053 .96838  65.2 19.5 137d 112
2024 11 02 08  10 43 57.411   +18 39 27.71  .06031 .96834  65.1 19.5 137d 112
2024 11 02 09  10 44 32.403   +18 35 57.91  .06010 .96830  65.0 19.5 137d 112
2024 11 02 10  10 45 07.627   +18 32 26.15  .05989 .96826  64.8 19.5 136d 112
2024 11 02 11  10 45 43.084   +18 28 52.42  .05968 .96823  64.7 19.5 136d 112